Mobile, AL

4:25 AM CDT on March 28, 2017 (GMT -0500)
Mobile Regional

Weather History for KMOB - December, 2011

Change the Weather History Date:

Monday, December 5, 2011

  Actual Average Record
Temperature  
Mean Temperature 67 °F 54 °F  
Max Temperature 73 °F 65 °F 79 °F (1998)
Min Temperature 61 °F 44 °F 24 °F (1886)
Degree Days  
Heating Degree Days 0 11  
Month to date heating degree days 39 54  
Since 1 July heating degree days 329 312  
Cooling Degree Days 2 1  
Month to date cooling degree days 3 5  
Year to date cooling degree days 2847 2508  
Growing Degree Days 18 (Base 50)    
Moisture  
Dew Point 64 °F    
Average Humidity 86    
Maximum Humidity 93    
Minimum Humidity 79    
Precipitation  
Precipitation 0.10 in 0.16 in 1.56 in (1953)
Month to date precipitation 0.10 0.81  
Year to date precipitation 48.64 61.90  
Snow  
Snow 0.00 in 0.00 in 0.00 in (2002)
Month to date snowfall 0.0 0.0  
Since 1 July snowfall 0.0 0.0  
Snow Depth 0.00 in    
Sea Level Pressure  
Sea Level Pressure 30.02 in    
Wind  
Wind Speed 9 mph (SSE)    
Max Wind Speed 23 mph    
Max Gust Speed 31 mph    
Visibility 6 miles    
Events Fog , Rain    
T = Trace of Precipitation, MM = Missing Value Source: NWS Daily Summary

Daily Weather History Graph

Daily Weather History Graph

Search for Another Location

Airport or City:

Trip Planner

Search our weather history database for the weather conditions in past years. The results will help you decide how hot, cold, wet, or windy it might be!

Date:

Astronomy

Dec. 05, 2011 Rise Set
Actual Time 6:35 AM CST 4:51 PM CST
Civil Twilight 6:09 AM CST 5:17 PM CST
Nautical Twilight 5:39 AM CST 5:47 PM CST
Astronomical Twilight 5:10 AM CST 6:16 PM CST
Moon 1:37 PM CST (12/5) 2:10 AM CST (12/5)
Length of Visible Light 11h 08m
Length of Day
10h 15m
Waxing Gibbous, 80% of the Moon is Illuminated
Dec 5
Waxing Gibbous
Dec 10
Full
Dec 17
Last Quarter
Dec 24
New
Jan 1
First Quarter

Hourly Weather History & Observations

Time (CST) Temp. Dew Point Humidity Pressure Visibility Wind Dir Wind Speed Gust Speed Precip Events Conditions
12:56 AM 62.1 °F 57.9 °F 86% 30.09 in 10.0 mi ESE 8.1 mph - N/A   Mostly Cloudy
1:56 AM 63.0 °F 59.0 °F 87% 30.07 in 10.0 mi ESE 8.1 mph - N/A   Overcast
2:56 AM 63.0 °F 60.1 °F 90% 30.05 in 10.0 mi ESE 10.4 mph - N/A   Mostly Cloudy
3:56 AM 64.0 °F 60.1 °F 87% 30.04 in 10.0 mi ESE 9.2 mph - N/A   Overcast
4:56 AM 64.4 °F 60.8 °F 88% 30.04 in 10.0 mi ESE 9.2 mph - N/A   Overcast
5:10 AM 64.4 °F 60.8 °F 88% 30.04 in 10.0 mi ESE 9.2 mph - N/A   Overcast
5:56 AM 63.0 °F 60.1 °F 90% 30.04 in 10.0 mi ESE 8.1 mph - N/A   Overcast
6:07 AM 62.6 °F 60.8 °F 94% 30.04 in 10.0 mi East 9.2 mph - N/A   Mostly Cloudy
6:56 AM 63.0 °F 61.0 °F 93% 30.04 in 10.0 mi ESE 9.2 mph - N/A   Mostly Cloudy
7:56 AM 66.0 °F 62.1 °F 87% 30.05 in 10.0 mi ESE 8.1 mph - N/A   Overcast
8:35 AM 68.0 °F 62.6 °F 83% 30.06 in 10.0 mi SE 9.2 mph - N/A   Overcast
8:56 AM 68.0 °F 62.6 °F 83% 30.07 in 10.0 mi SE 9.2 mph - N/A Rain Light Rain
9:56 AM 72.0 °F 64.9 °F 78% 30.06 in 6.0 mi SE 10.4 mph - 0.00 in   Haze
10:56 AM 73.0 °F 66.0 °F 79% 30.04 in 10.0 mi SE 15.0 mph - 0.00 in   Overcast
11:44 AM 71.6 °F 66.2 °F 83% 30.03 in 3.0 mi SSE 13.8 mph - 0.00 in Rain Rain
11:56 AM 69.1 °F 66.0 °F 90% 30.02 in 2.0 mi South 19.6 mph 31.1 mph 0.10 in Rain Light Rain
12:01 PM 69.8 °F 66.2 °F 88% 30.03 in 4.0 mi South 16.1 mph 29.9 mph 0.00 in Rain Light Rain
12:42 PM 69.8 °F 66.2 °F 88% 30.01 in 10.0 mi SSE 11.5 mph - 0.00 in   Overcast
12:48 PM 69.8 °F 66.2 °F 88% 30.01 in 5.0 mi SSE 11.5 mph - 0.00 in Rain Light Rain
12:56 PM 70.0 °F 66.9 °F 90% 30.00 in 5.0 mi SSE 8.1 mph - 0.00 in   Overcast
1:56 PM 71.6 °F 64.4 °F 78% 30.00 in 7.0 mi South 12.7 mph - N/A   Overcast
2:27 PM 71.6 °F 64.4 °F 78% 29.99 in 7.0 mi South 12.7 mph - N/A   Overcast
2:56 PM 72.0 °F 66.0 °F 81% 29.99 in 7.0 mi South 11.5 mph - N/A   Overcast
3:24 PM 71.6 °F 66.2 °F 83% 29.99 in 7.0 mi South 12.7 mph - N/A   Overcast
3:56 PM 71.1 °F 66.0 °F 84% 29.99 in 7.0 mi South 8.1 mph - N/A   Overcast
4:08 PM 71.6 °F 66.2 °F 83% 29.99 in 10.0 mi South 9.2 mph - N/A   Mostly Cloudy
4:20 PM 69.8 °F 66.2 °F 88% 29.99 in 7.0 mi SSE 8.1 mph - N/A   Mostly Cloudy
4:28 PM 69.8 °F 66.2 °F 88% 29.99 in 7.0 mi SSE 8.1 mph - N/A   Mostly Cloudy
4:56 PM 70.0 °F 66.0 °F 87% 29.99 in 7.0 mi South 6.9 mph - N/A   Overcast
5:16 PM 69.8 °F 66.2 °F 88% 30.00 in 10.0 mi South 6.9 mph - N/A   Overcast
5:56 PM 69.1 °F 66.0 °F 90% 30.00 in 7.0 mi South 5.8 mph - N/A   Mostly Cloudy
6:35 PM 68.0 °F 66.2 °F 94% 30.01 in 4.0 mi SSE 5.8 mph - N/A   Overcast
6:56 PM 68.0 °F 66.0 °F 93% 30.00 in 3.0 mi SSE 5.8 mph - N/A   Overcast
7:34 PM 66.2 °F 66.2 °F 100% 30.01 in 3.0 mi SSE 6.9 mph - N/A   Mostly Cloudy
7:56 PM 66.9 °F 64.9 °F 93% 30.01 in 3.0 mi South 4.6 mph - N/A   Mostly Cloudy
8:22 PM 66.2 °F 64.4 °F 94% 30.02 in 4.0 mi South 5.8 mph - N/A   Scattered Clouds
8:56 PM 66.9 °F 64.9 °F 93% 30.01 in 3.0 mi South 5.8 mph - N/A   Partly Cloudy
9:13 PM 66.2 °F 64.4 °F 94% 30.02 in 2.0 mi SSE 6.9 mph - N/A   Scattered Clouds
9:16 PM 68.0 °F 64.4 °F 88% 30.02 in 0.8 mi SSE 5.8 mph - N/A   Mostly Cloudy
9:23 PM 66.2 °F 64.4 °F 94% 30.02 in 0.2 mi SSE 5.8 mph - N/A Fog Fog
9:31 PM 66.2 °F 64.4 °F 94% 30.02 in 0.5 mi SSE 5.8 mph - N/A Fog Fog
9:36 PM 66.2 °F 64.4 °F 94% 30.02 in 1.0 mi SSE 5.8 mph - N/A   Overcast
9:54 PM 66.2 °F 64.4 °F 94% 30.03 in 0.8 mi South 4.6 mph - N/A   Overcast
9:56 PM 66.2 °F 64.4 °F 94% 30.03 in 0.8 mi South 5.8 mph - N/A   Overcast
10:32 PM 66.2 °F 64.4 °F 94% 30.02 in 1.0 mi SSE 5.8 mph - N/A   Mist
10:56 PM 66.0 °F 64.9 °F 96% 30.01 in 0.8 mi SE 5.8 mph - N/A   Overcast
11:42 PM 66.2 °F 64.4 °F 94% 30.02 in 0.8 mi SSE 5.8 mph - N/A   Overcast
11:56 PM 66.0 °F 64.9 °F 96% 30.01 in 0.8 mi SE 6.9 mph - N/A   Overcast